Date_and_time,latitude,longitude,wind_speed,RelWindDirFrom,WindDirFrom,air_pressure,air_temperature,relative_humidity,Temp,platform_speed_wrt_ground,air_pressure_at_mean_sea_level,platform_orientation
2019-05-20 00:00,50.63045,-96.9807816666667,15.0,17.7,358,991.07,13.5,50,9.83,0.0,1017.72,305.3
2019-05-20 00:10,50.6304516666667,-96.980775,14.7,18.0,358,991.04,13.3,51,9.81,0.0,1017.68,305.3
2019-05-20 00:20,50.63045,-96.98077,15.9,19.7,358,990.99,13.2,52,9.81,0.0,1017.64,305.3
2019-05-20 00:30,50.630455,-96.9807766666667,16.1,21.7,356,990.98,13.1,53,9.81,0.0,1017.63,305.3
2019-05-20 00:40,50.6304533333333,-96.9807816666667,15.2,19.5,357,991.06,13.1,53,9.81,0.0,1017.71,305.3
2019-05-20 00:50,50.6304483333333,-96.9807783333333,16.3,19.1,358,991.10,13.0,54,9.79,0.0,1017.75,305.3
2019-05-20 01:00,50.63045,-96.980775,16.2,19.6,358,991.10,12.8,55,9.79,0.0,1017.75,0.0
2019-05-20 01:10,50.63045,-96.9807766666667,15.3,18.5,354,991.16,12.5,58,9.80,0.0,1017.84,0.0
2019-05-20 01:20,50.6304516666667,-96.9807766666667,15.2,18.7,354,991.20,12.6,57,9.79,0.0,1017.87,0.0
2019-05-20 01:30,50.6304516666667,-96.9807766666667,14.8,18.7,355,991.31,12.5,58,9.79,0.0,1017.98,0.0
2019-05-20 01:40,50.630445,-96.9807666666667,13.8,16.6,354,991.39,12.4,60,9.78,0.0,1018.08,0.0
2019-05-20 01:50,50.63045,-96.9807666666667,12.3,14.9,354,991.42,12.1,61,9.78,0.0,1018.12,0.0
2019-05-20 02:00,50.6304533333333,-96.9807566666667,10.9,13.3,351,991.47,12.1,60,9.78,0.0,1018.17,90.0
2019-05-20 02:10,50.6304533333333,-96.9807466666667,10.0,11.8,347,991.54,12.4,58,9.79,0.0,1018.24,90.0
2019-05-20 02:20,50.6304583333333,-96.9807516666667,8.3,10.4,342,991.64,12.4,57,9.79,0.0,1018.35,90.0
2019-05-20 02:30,50.630445,-96.980755,7.1,9.3,339,991.78,12.6,54,9.80,0.0,1018.48,90.0
2019-05-20 02:40,50.6304533333333,-96.9807583333333,6.9,9.9,328,991.87,12.7,49,9.81,0.0,1018.58,90.0
2019-05-20 02:50,50.6304533333333,-96.980765,7.5,12.1,329,991.97,12.6,48,9.81,0.0,1018.69,90.0
2019-05-20 03:00,50.6304566666667,-96.9807666666667,7.8,11.4,327,992.01,12.4,48,9.87,0.0,1018.76,90.0
2019-05-20 03:10,50.6304566666667,-96.9807666666667,7.8,10.4,329,992.01,12.1,49,9.97,0.0,1018.77,90.0
2019-05-20 03:20,50.630455,-96.980765,8.7,12.4,331,992.02,11.8,50,10.01,0.0,1018.80,90.0
2019-05-20 03:30,50.6305016666667,-96.9807883333333,8.4,11.5,331,992.06,11.5,52,10.01,0.0,1018.85,90.0
2019-05-20 03:40,50.6304666666667,-96.980765,8.8,12.7,331,992.00,11.3,53,9.99,0.0,1018.81,90.0
2019-05-20 03:50,50.6304616666667,-96.9807666666667,8.4,12.2,329,992.01,11.1,54,9.97,0.0,1018.84,90.0
2019-05-20 04:00,50.6304616666667,-96.9807666666667,8.5,12.5,324,992.02,10.8,54,9.94,0.0,1018.85,14.5
2019-05-20 04:10,50.63046,-96.98077,8.3,12.8,321,992.07,10.7,54,9.91,0.0,1018.90,14.5
2019-05-20 04:20,50.6304583333333,-96.98077,8.7,13.2,318,992.09,10.5,54,9.90,0.0,1018.92,14.5
2019-05-20 04:30,50.63045,-96.980785,7.9,13.6,320,992.19,10.3,55,9.90,0.0,1019.03,14.5
2019-05-20 04:40,50.630465,-96.9807616666667,6.8,9.3,315,992.29,10.1,55,9.91,0.0,1019.14,14.5
2019-05-20 04:50,50.6304616666667,-96.9807516666667,7.1,10.2,316,992.28,9.8,56,9.92,0.0,1019.16,14.5
2019-05-20 05:00,50.630455,-96.980765,7.2,9.9,319,992.28,9.5,57,9.93,0.0,1019.19,270.0
2019-05-20 05:10,50.63045,-96.98076,7.2,10.7,319,992.28,9.3,58,9.94,0.0,1019.22,270.0
2019-05-20 05:20,50.63045,-96.9807633333333,7.8,10.7,322,992.31,9.0,60,9.94,0.0,1019.28,270.0
2019-05-20 05:30,50.63045,-96.9807616666667,7.1,9.6,323,992.33,8.7,61,9.94,0.0,1019.32,270.0
2019-05-20 05:40,50.63045,-96.98076,6.9,9.2,324,992.32,8.4,62,9.93,0.0,1019.33,270.0
2019-05-20 05:50,50.6304533333333,-96.9807666666667,6.4,9.9,325,992.38,8.3,63,9.92,0.0,1019.42,270.0
2019-05-20 06:00,50.630455,-96.9807483333333,6.5,8.6,325,992.45,8.1,63,9.89,0.0,1019.50,90.0
2019-05-20 06:10,50.6304533333333,-96.9807583333333,6.2,8.8,321,992.48,8.0,64,9.88,0.0,1019.55,90.0
2019-05-20 06:20,50.630455,-96.9807583333333,6.7,9.7,319,992.52,7.8,64,9.86,0.0,1019.61,90.0
2019-05-20 06:30,50.6304533333333,-96.9807583333333,6.7,9.7,320,992.57,7.7,65,9.83,0.0,1019.67,90.0
2019-05-20 06:40,50.6304533333333,-96.9807616666667,7.1,9.7,322,992.62,7.6,65,9.82,0.0,1019.74,90.0
2019-05-20 06:50,50.6304383333333,-96.98076,7.0,9.7,324,992.70,7.5,66,9.80,0.0,1019.84,90.0
2019-05-20 07:00,50.6304516666667,-96.98077,6.2,8.6,324,992.81,7.4,66,9.79,0.0,1019.98,360.0
2019-05-20 07:10,50.6304516666667,-96.980765,5.9,8.6,331,992.86,7.3,67,9.78,0.0,1020.05,360.0
2019-05-20 07:20,50.6304516666667,-96.9807633333333,7.1,9.1,338,992.81,7.8,67,9.77,0.0,1019.98,360.0
2019-05-20 07:30,50.6304516666667,-96.980765,8.0,10.5,345,992.81,8.1,67,9.76,0.0,1019.98,360.0
2019-05-20 07:40,50.6304516666667,-96.9807633333333,8.4,11.0,344,992.79,8.3,66,9.75,0.0,1019.96,360.0
2019-05-20 07:50,50.63045,-96.9807633333333,7.5,10.7,346,992.87,8.4,67,9.73,0.0,1020.05,360.0
2019-05-20 08:00,50.6304516666667,-96.980765,7.6,10.1,342,992.92,8.2,67,9.71,0.0,1020.12,90.0
2019-05-20 08:10,50.6304516666667,-96.980765,9.6,12.5,351,992.97,8.5,68,9.72,0.0,1020.15,90.0
2019-05-20 08:20,50.6304516666667,-96.980765,10.0,11.8,356,993.00,8.6,71,9.71,0.0,1020.19,90.0
2019-05-20 08:30,50.6304383333333,-96.9807466666667,8.5,11.1,350,993.07,8.7,71,9.71,0.0,1020.26,90.0
2019-05-20 08:40,50.6304483333333,-96.9807783333333,8.2,9.7,354,993.10,8.7,71,9.71,0.0,1020.29,90.0
2019-05-20 08:50,50.6304583333333,-96.9807716666667,9.2,13.3,1,993.18,9.0,70,9.70,0.0,1020.37,90.0
2019-05-20 09:00,50.6304533333333,-96.9807666666667,8.5,10.8,2,993.25,9.1,71,9.70,0.0,1020.44,270.0
2019-05-20 09:10,50.6304466666667,-96.9807666666667,8.7,10.7,8,993.29,9.0,70,9.70,0.0,1020.46,270.0
2019-05-20 09:20,50.6304466666667,-96.9807633333333,8.7,10.0,2,993.34,9.0,69,9.69,0.0,1020.49,270.0
2019-05-20 09:30,50.63045,-96.9807633333333,9.1,11.0,4,993.32,8.9,69,9.68,0.0,1020.47,270.0
2019-05-20 09:40,50.6304516666667,-96.9807616666667,8.8,11.0,4,993.40,8.9,70,9.68,0.0,1020.55,270.0
2019-05-20 09:50,50.6304516666667,-96.9807633333333,8.4,9.9,6,993.50,8.8,70,9.67,0.0,1020.67,270.0
2019-05-20 10:00,50.6304533333333,-96.9807633333333,8.8,10.3,7,993.53,8.7,70,9.66,0.0,1020.69,90.0
2019-05-20 10:10,50.6304516666667,-96.9807633333333,8.2,10.2,8,993.58,8.6,72,9.65,0.0,1020.74,90.0
2019-05-20 10:20,50.6304516666667,-96.9807633333333,6.7,9.1,7,993.66,8.5,72,9.63,0.0,1020.82,90.0
2019-05-20 10:30,50.63045,-96.9807633333333,5.7,7.4,1,993.81,8.5,74,9.63,0.0,1020.97,90.0
2019-05-20 10:40,50.63045,-96.9807633333333,6.8,9.7,1,993.83,8.3,73,9.62,0.0,1020.99,90.0
2019-05-20 10:50,50.63045,-96.9807633333333,8.4,9.8,2,993.88,8.3,75,9.61,0.0,1021.04,90.0
2019-05-20 11:00,50.63045,-96.9807633333333,8.5,9.8,8,993.95,8.3,75,9.61,0.0,1021.11,0.0
2019-05-20 11:10,50.63045,-96.9807633333333,8.3,9.6,6,994.05,8.4,76,9.60,0.0,1021.21,0.0
2019-05-20 11:20,50.63045,-96.980765,9.4,10.8,10,994.06,8.3,76,9.59,0.0,1021.23,0.0
2019-05-20 11:30,50.63045,-96.980765,10.3,11.4,8,994.06,8.2,75,9.59,0.0,1021.24,0.0
2019-05-20 11:40,50.6304516666667,-96.9807666666667,10.2,11.4,8,994.12,8.1,76,9.59,0.0,1021.31,0.0
2019-05-20 11:50,50.6304516666667,-96.9807616666667,10.4,11.7,6,994.17,8.1,77,9.58,0.0,1021.37,0.0
2019-05-20 12:00,50.6304533333333,-96.9807616666667,10.2,11.6,9,994.30,8.1,77,9.58,0.0,1021.51,90.0
2019-05-20 12:10,50.6304566666667,-96.980765,10.0,11.3,12,994.44,8.0,79,9.57,0.0,1021.65,90.0
2019-05-20 12:20,50.630455,-96.9807683333333,10.2,11.9,13,994.52,8.0,79,9.57,0.0,1021.74,90.0
2019-05-20 12:30,50.6304533333333,-96.9807683333333,10.3,11.9,10,994.59,8.0,81,9.57,0.0,1021.82,90.0
2019-05-20 12:40,50.63047,-96.98079,10.4,11.9,12,994.64,7.8,80,9.57,0.0,1021.88,90.0
2019-05-20 12:50,50.6304533333333,-96.9807766666667,10.5,12.0,12,994.71,7.8,82,9.56,0.0,1021.95,90.0
2019-05-20 13:00,50.63045,-96.9807716666667,10.2,11.2,11,994.79,7.7,84,9.57,0.0,1022.03,270.0
2019-05-20 13:10,50.6304466666667,-96.9807583333333,10.0,11.4,12,994.85,7.7,84,9.57,0.0,1022.11,270.0
2019-05-20 13:20,50.6304483333333,-96.98076,9.5,10.6,16,995.00,7.6,85,9.57,0.0,1022.26,270.0
2019-05-20 13:30,50.6304483333333,-96.9807566666667,8.9,10.4,14,995.05,7.6,86,9.56,0.0,1022.32,270.0
2019-05-20 13:40,50.6304433333333,-96.980785,8.3,9.7,15,995.14,7.6,87,9.56,0.0,1022.41,270.0
2019-05-20 13:50,50.630455,-96.9807666666667,8.0,8.9,11,995.19,7.6,86,9.56,0.0,1022.46,270.0
2019-05-20 14:00,50.6304516666667,-96.9807633333333,7.8,8.9,12,995.24,7.6,88,9.56,0.0,1022.52,0.0
2019-05-20 14:10,50.63045,-96.980765,7.6,8.8,10,995.32,7.7,88,9.57,0.0,1022.60,0.0
2019-05-20 14:20,50.6304516666667,-96.9807666666667,6.3,7.3,10,995.51,7.8,88,9.57,0.0,1022.79,0.0
2019-05-20 14:30,50.63045,-96.9807683333333,6.7,8.2,14,995.61,7.9,89,9.58,0.0,1022.89,0.0
2019-05-20 14:40,50.6304466666667,-96.9807666666667,7.1,8.0,12,995.67,8.0,89,9.58,0.0,1022.96,0.0
2019-05-20 14:50,50.63045,-96.980765,7.1,7.8,13,995.76,8.0,88,9.58,0.0,1023.05,0.0
2019-05-20 15:00,50.6304533333333,-96.9807666666667,7.0,8.3,13,995.83,8.1,87,9.60,0.0,1023.12,270.0
2019-05-20 15:10,50.6304533333333,-96.9807666666667,6.9,7.9,12,995.86,8.3,87,9.63,0.0,1023.14,270.0
2019-05-20 15:20,50.63045,-96.9807766666667,8.0,9.1,14,995.85,8.4,87,9.66,0.0,1023.13,270.0
2019-05-20 15:30,50.6304516666667,-96.9807716666667,7.8,8.8,14,995.86,8.4,87,9.70,0.0,1023.14,270.0
2019-05-20 15:40,50.6304566666667,-96.980775,6.6,7.4,17,995.92,8.5,87,9.76,0.0,1023.19,270.0
2019-05-20 15:50,50.6304533333333,-96.9807716666667,6.5,7.2,18,995.87,8.6,87,9.81,0.0,1023.13,270.0
2019-05-20 16:00,50.6304516666667,-96.98077,6.6,7.6,17,995.80,8.8,87,9.84,0.0,1023.05,90.0
2019-05-20 16:10,50.63045,-96.9807716666667,7.1,8.0,17,995.78,8.9,87,9.88,0.0,1023.02,90.0
2019-05-20 16:20,50.63045,-96.9807716666667,7.4,8.1,18,995.71,9.0,87,9.93,0.0,1022.94,90.0
2019-05-20 16:30,50.6304466666667,-96.9807566666667,6.9,7.7,17,995.69,9.0,88,9.96,0.0,1022.91,90.0
2019-05-20 16:40,50.6304466666667,-96.980755,6.6,7.2,19,995.64,9.2,87,9.97,0.0,1022.86,90.0
2019-05-20 16:50,50.6304483333333,-96.98076,6.2,7.0,22,995.67,9.4,89,10.00,0.0,1022.88,90.0
2019-05-20 17:00,50.6304483333333,-96.980765,6.7,7.4,23,995.63,9.4,88,10.01,0.0,1022.81,360.0
2019-05-20 17:10,50.63045,-96.9807683333333,7.0,8.2,22,995.58,9.5,88,9.96,0.0,1022.76,360.0
2019-05-20 17:20,50.6304483333333,-96.9807683333333,7.2,8.0,22,995.59,9.6,87,9.88,0.0,1022.76,360.0
2019-05-20 17:30,50.6304283333333,-96.9807583333333,7.2,7.9,20,995.50,9.7,87,9.82,0.0,1022.66,360.0
2019-05-20 17:40,50.6304416666667,-96.9807683333333,7.6,8.4,14,995.40,9.9,84,9.77,0.0,1022.54,360.0
2019-05-20 17:50,50.6304416666667,-96.9807633333333,8.1,9.0,4,995.33,10.2,80,9.74,0.0,1022.45,360.0
2019-05-20 18:00,50.6304733333333,-96.9807783333333,8.8,9.2,5,995.28,10.7,70,9.72,0.0,1022.37,332.6
2019-05-20 18:10,50.6304533333333,-96.9807616666667,10.0,11.3,8,995.12,11.6,61,9.71,0.0,1022.16,332.6
2019-05-20 18:20,50.63045,-96.9807616666667,10.0,10.9,10,994.98,12.1,56,9.79,0.0,1021.98,332.6
2019-05-20 18:30,50.6304516666667,-96.9807633333333,10.5,11.2,9,994.83,12.1,56,10.02,0.0,1021.82,332.6
2019-05-20 18:40,50.63045,-96.980765,9.9,10.7,10,994.70,12.1,57,10.11,0.0,1021.68,332.6
2019-05-20 18:50,50.63045,-96.980765,9.5,10.3,11,994.66,12.2,56,10.22,0.0,1021.63,332.6
2019-05-20 19:00,50.6304483333333,-96.980765,9.6,10.3,12,994.64,12.1,60,10.24,0.0,1021.62,360.0
2019-05-20 19:10,50.63045,-96.9807666666667,9.8,11.1,11,994.52,12.0,59,10.16,0.0,1021.49,360.0
2019-05-20 19:20,50.63045,-96.9807666666667,11.0,11.9,10,994.33,12.3,55,10.05,0.0,1021.27,360.0
2019-05-20 19:30,50.63045,-96.9807666666667,10.5,11.5,8,994.37,12.8,51,10.02,0.0,1021.29,360.0
2019-05-20 19:40,50.63045,-96.9807666666667,10.0,11.1,10,994.42,12.9,52,10.07,0.0,1021.31,360.0
2019-05-20 19:50,50.63045,-96.9807683333333,10.0,10.8,10,994.33,13.0,51,10.08,0.0,1021.20,360.0
2019-05-20 20:00,50.63045,-96.9807683333333,10.4,10.9,10,994.23,13.1,50,10.04,0.0,1021.05,360.0
2019-05-20 20:10,50.63046,-96.980745,9.7,10.9,9,994.33,13.4,49,10.02,0.0,1021.11,360.0
2019-05-20 20:20,50.630445,-96.98079,9.3,10.1,9,994.33,13.7,47,10.15,0.0,1021.10,360.0
2019-05-20 20:30,50.63045,-96.980795,9.6,10.4,7,994.25,14.0,46,10.33,0.0,1021.00,360.0
2019-05-20 20:40,50.6304466666667,-96.9807683333333,9.9,11.2,7,994.25,14.2,46,10.27,0.0,1020.99,360.0
2019-05-20 20:50,50.6304616666667,-96.9807916666667,9.7,10.8,6,994.15,14.3,45,10.18,0.0,1020.88,360.0
2019-05-20 21:00,50.6304516666667,-96.98077,9.2,10.2,5,994.09,14.6,43,10.13,0.0,1020.81,142.3
2019-05-20 21:10,50.6304483333333,-96.9807683333333,9.0,10.1,9,994.11,14.8,42,10.10,0.0,1020.81,142.3
2019-05-20 21:20,50.6304483333333,-96.9807683333333,8.3,9.2,8,994.19,14.8,43,10.09,0.0,1020.86,142.3
2019-05-20 21:30,50.63045,-96.98077,9.1,10.5,10,994.11,15.0,41,10.08,0.0,1020.77,142.3
2019-05-20 21:40,50.63045,-96.9807716666667,8.4,9.9,9,994.12,15.0,42,10.18,0.0,1020.78,142.3
2019-05-20 21:50,50.6304516666667,-96.9807733333333,8.1,9.1,13,994.09,15.0,42,10.33,0.0,1020.74,142.3
2019-05-20 22:00,50.6304733333333,-96.980775,8.9,9.7,11,993.89,14.9,44,10.34,0.0,1020.53,346.7
2019-05-20 22:10,50.63045,-96.9807716666667,7.7,8.7,15,994.01,15.1,44,10.29,0.0,1020.63,346.7
2019-05-20 22:20,50.6304516666667,-96.9807666666667,8.6,9.2,17,993.99,14.9,44,10.29,0.0,1020.60,346.7
2019-05-20 22:30,50.6304533333333,-96.980765,8.1,8.9,15,993.93,14.9,45,10.32,0.0,1020.54,346.7
2019-05-20 22:40,50.6304533333333,-96.9807666666667,6.7,7.4,19,994.12,15.2,39,10.36,0.0,1020.71,346.7
2019-05-20 22:50,50.6304516666667,-96.980775,5.6,6.4,29,994.19,15.2,45,10.40,0.0,1020.77,346.7
2019-05-20 23:00,50.6304566666667,-96.9807716666667,5.1,6.0,30,994.20,14.8,46,10.46,0.0,1020.78,270.0
2019-05-20 23:10,50.6304516666667,-96.9807266666667,5.8,6.1,24,994.20,15.8,29,10.53,0.0,1020.73,270.0
2019-05-20 23:20,50.630455,-96.9807733333333,6.4,7.4,27,994.20,15.9,33,10.58,0.0,1020.73,270.0
2019-05-20 23:30,50.6304483333333,-96.9807716666667,7.7,8.5,26,994.16,15.1,43,10.60,0.0,1020.72,270.0
2019-05-20 23:40,50.6304483333333,-96.9807733333333,7.5,8.0,24,994.14,15.2,39,10.60,0.0,1020.69,270.0
